Regional Weather Roundup
Issued by NWS

Home | Current Version | Previous Version | Text Only | Print | Product List | Glossary Off
Versions: 1 2 3 4 5 6 7 8 9 10 11 12 13 14 15 16 17 18 19 20 21 22 23 24 25 26 27 28 29 30 31 32 33 34 35 36 37 38 39 40 41 42 43 44 45 46 47 48 49 50

000
ASUS43 KMKX 230611
RWRWI

WISCONSIN REGIONAL WEATHER ROUNDUP
NATIONAL WEATHER SERVICE MILWAUKEE/SULLIVAN WI
100 AM CDT THU MAR 23 2017

NOTE: "FAIR" INDICATES FEW OR NO CLOUDS BELOW 12,000 FEET WITH NO
SIGNIFICANT WEATHER AND/OR OBSTRUCTIONS TO VISIBILITY.

WIZ001-002-006>008-014>016-023>028-230700-
NORTHWEST WISCONSIN

CITY           SKY/WX    TMP DP  RH WIND       PRES   REMARKS
SUPERIOR ARPT  CLOUDY    31  20  63 E3        30.29F
6HR MIN TEMP:  28; 6HR MAX TEMP:  31;

ASHLAND        CLOUDY    26  21  81 CALM      30.33F
6HR MIN TEMP:  21; 6HR MAX TEMP:  29;

HAYWARD        CLOUDY    34  11  38 S6        30.30F WCI  29
6HR MIN TEMP:  32; 6HR MAX TEMP:  35;

SIREN          CLOUDY    34  11  38 SE8       30.28F WCI  28
6HR MIN TEMP:  34; 6HR MAX TEMP:  36;

CUMBERLAND     CLOUDY    32  12  43 SE13      30.28F WCI  22
RICE LAKE      CLOUDY    33  12  41 CALM      30.32F
6HR MIN TEMP:  33; 6HR MAX TEMP:  35;

CHETEK         CLOUDY    33  13  44 SE10      30.32F WCI  25
6HR MIN TEMP:  31; 6HR MAX TEMP:  34;

LADYSMITH      CLOUDY    33  15  49 SE7       30.34F WCI  26
6HR MIN TEMP:  30; 6HR MAX TEMP:  33;

EAU CLAIRE     CLOUDY    35  12  38 SE8       30.32F WCI  29
6HR MIN TEMP:  33; 6HR MAX TEMP:  37;

MENOMONIE      CLOUDY    35  14  43 E9        30.31F WCI  27
6HR MIN TEMP:  33; 6HR MAX TEMP:  38;

NEW RICHMOND   CLOUDY    35  10  35 SE10      30.29S WCI  27
6HR MIN TEMP:  34; 6HR MAX TEMP:  36;

OSCEOLA        CLOUDY    36  12  37 SE10      30.30F WCI  28
6HR MIN TEMP:  35; 6HR MAX TEMP:  37;

$$

WIZ003>005-009-010-017-018-230700-
NORTH CENTRAL WISCONSIN

CITY           SKY/WX    TMP DP  RH WIND       PRES   REMARKS
MANITOWISH WTR MOCLDY    27  11  51 SE8       30.33F WCI  18
6HR MIN TEMP:  24; 6HR MAX TEMP:  31;

ARBOR VITAE    CLOUDY    29  14  53 S8        30.33F WCI  21
6HR MIN TEMP:  26; 6HR MAX TEMP:  33;

WOODRUFF       CLOUDY    29  14  53 S8        30.33F WCI  21
6HR MIN TEMP:  26; 6HR MAX TEMP:  33;

RHINELANDER    CLOUDY    26  13  57 S6        30.36F WCI  19
6HR MIN TEMP:  26; 6HR MAX TEMP:  33;

EAGLE RIVER    CLOUDY    25  10  54 S5        30.35F WCI  19
6HR MIN TEMP:  24; 6HR MAX TEMP:  31;

LAND O LAKES   MOCLDY    27  11  52 S3        30.36F
6HR MIN TEMP:  26; 6HR MAX TEMP:  32;

PHILLIPS       CLOUDY    29  14  52 S10       30.32F WCI  20
6HR MIN TEMP:  27; 6HR MAX TEMP:  32;

TOMAHAWK       CLOUDY    27  14  58 SE5       30.36F WCI  22
6HR MIN TEMP:  24; 6HR MAX TEMP:  32;

MEDFORD        CLOUDY    28  17  61 SE8       30.34F WCI  20
6HR MIN TEMP:  27; 6HR MAX TEMP:  30;

MERRILL        CLOUDY    28  16  62 SE8       30.38S WCI  19
6HR MIN TEMP:  26; 6HR MAX TEMP:  33;

$$

WIZ029-030-035-036-043>047-230700-
CENTRAL WISCONSIN

CITY           SKY/WX    TMP DP  RH WIND       PRES   REMARKS
WAUSAU         CLOUDY    27  18  69 SE10      30.38S WCI  17
6HR MIN TEMP:  26; 6HR MAX TEMP:  32;

MOSINEE        CLOUDY    28  21  74 SE7       30.39S WCI  21
MARSHFIELD     CLOUDY    28  18  66 SE9       30.35F WCI  19
6HR MIN TEMP:  28; 6HR MAX TEMP:  33;

STEVENS POINT  CLOUDY    25  19  77 SE7       30.41S WCI  17
6HR MIN TEMP:  25; 6HR MAX TEMP:  31;

WAUPACA        PTCLDY    27  22  81 SE7       30.43F WCI  19
6HR MIN TEMP:  27; 6HR MAX TEMP:  33;

WAUTOMA        PTCLDY    25  20  81 E5        30.42F WCI  19
6HR MIN TEMP:  25; 6HR MAX TEMP:  34;

WISC RAPIDS    CLOUDY    29  20  69 SE8       30.40F WCI  21
6HR MIN TEMP:  27; 6HR MAX TEMP:  35;

CAMP DOUGLAS   NOT AVBL
$$

WIZ011>013-019>022-031-037>040-048>050-230700-
NORTHEAST WISCONSIN

CITY           SKY/WX    TMP DP  RH WIND       PRES   REMARKS
ANTIGO         MOCLDY    23  19  83 SE10      30.39S WCI  12
6HR MIN TEMP:  23; 6HR MAX TEMP:  30;

SHAWANO        CLEAR     24  19  80 CALM      30.45F
6HR MIN TEMP:  24; 6HR MAX TEMP:  34;

OCONTO         CLEAR     22  17  81 SE3       30.46F
STURGEON BAY   CLEAR     24  18  77 S6        30.48F WCI  17
6HR MIN TEMP:  23; 6HR MAX TEMP:  25;

GREEN BAY      CLEAR     24  20  84 SE6       30.46F WCI  17
6HR MIN TEMP:  23; 6HR MAX TEMP:  33;

MANITOWOC      CLEAR     21  19  92 CALM      30.49F
6HR MIN TEMP:  21; 6HR MAX TEMP:  26;

APPLETON       CLEAR     25  19  80 SE10      30.42F WCI  15
CLINTONVILLE   CLOUDY    25  19  80 SE3       30.44F
OSHKOSH        CLEAR     25  19  78 SE12      30.43F WCI  14
6HR MIN TEMP:  24; 6HR MAX TEMP:  31;

$$

WIZ032>034-041-042-053>061-230700-
SOUTHWEST WISCONSIN

CITY           SKY/WX    TMP DP  RH WIND       PRES   REMARKS
LA CROSSE      CLOUDY    38  17  42 SE13      30.35S WCI  30
6HR MIN TEMP:  37; 6HR MAX TEMP:  41;

SPARTA         CLOUDY    34  19  52 SE7       30.37S WCI  28
6HR MIN TEMP:  30; 6HR MAX TEMP:  38;

VIROQUA        CLOUDY    33  19  56 SE13G18   30.34S WCI  24
6HR MIN TEMP:  32; 6HR MAX TEMP:  36;

BOSCOBEL       CLOUDY    36  19  50 SE6       30.39S WCI  31
6HR MIN TEMP:  30; 6HR MAX TEMP:  40;

PRAIRIE DU CHI CLOUDY    37  20  49 E7        30.36F WCI  32
6HR MIN TEMP:  34; 6HR MAX TEMP:  39;

PLATTEVILLE    CLOUDY    33  22  63 SE12      30.39S WCI  25
6HR MIN TEMP:  32; 6HR MAX TEMP:  37;

$$

WIZ056-057-062-063-064-067-068-230700-
SOUTH CENTRAL WISCONSIN

CITY           SKY/WX    TMP DP  RH WIND       PRES   REMARKS
REEDSBURG      CLOUDY    30  22  70 SE7       30.40S WCI  23
6HR MIN TEMP:  29; 6HR MAX TEMP:  35;

BARABOO/DELLS  CLOUDY    29  21  73 SE9       30.40S WCI  20
6HR MIN TEMP:  28; 6HR MAX TEMP:  35;

LONE ROCK      CLOUDY    32  19  58 SE12      30.41R WCI  23
6HR MIN TEMP:  28; 6HR MAX TEMP:  39;

MINERAL POINT  CLOUDY    32  21  64 SE14      30.38F WCI  22
MADISON        CLOUDY    26  19  74 SE9       30.42S WCI  17
6HR MIN TEMP:  26; 6HR MAX TEMP:  36;

MIDDLETON      CLOUDY    29  21  71 SE9       30.43R WCI  21
6HR MIN TEMP:  29; 6HR MAX TEMP:  38;

WATERTOWN      CLOUDY    24  20  83 E7        30.44F WCI  16
6HR MIN TEMP:  23; 6HR MAX TEMP:  32;

MONROE         CLOUDY    28  19  69 E6        30.41R WCI  22
JANESVILLE     CLOUDY    27  21  80 SE6       30.44R WCI  20
$$

WIZ051-052-058>065-066-070>072-230700-
SOUTHEAST WISCONSIN

CITY           SKY/WX    TMP DP  RH WIND       PRES   REMARKS
MILWAUKEE      PTCLDY    26  17  68 CALM      30.47F
6HR MIN TEMP:  25; 6HR MAX TEMP:  28;

WAUKESHA       CLEAR     21  18  86 E3        30.46F
MILWAUKEE/TIMM CLEAR     27  18  69 CALM      30.48F
RACINE         CLEAR     22  18  85 CALM      30.49F FOG
6HR MIN TEMP:  22; 6HR MAX TEMP:  27;

KENOSHA        CLEAR     21  18  88 E3        30.46F
6HR MIN TEMP:  21; 6HR MAX TEMP:  26;

FOND DU LAC    CLEAR     25  18  74 SE10      30.44F WCI  15
6HR MIN TEMP:  25; 6HR MAX TEMP:  33;

SHEBOYGAN      CLEAR     21  17  84 CALM      30.47F
6HR MIN TEMP:  21; 6HR MAX TEMP:  26;

WEST BEND      CLEAR     21  21 100 CALM      30.45F
JUNEAU         CLOUDY    24  19  80 E8        30.44F WCI  15
6HR MIN TEMP:  24; 6HR MAX TEMP:  32;

$$

LSZ147-162-230700-
LAKE SUPERIOR

STATION/POSITION TIME  TEMP    WIND        PRES    WAVE
                       AIR SEA DIR/SP/G            HT/PER
                 (UTC) (F)     (DEG/KT/KT) (MB)    (FT/S)
DEVILS ISLAND    0600   32     150/  6/  9 1027.9F
PORT WING        0540   31     120/  2/  6 1026.4F
SAXON HARBOR     0540   29     200/  3/  4 1026.4F
$$

LMZ867-665-643>646-230700-
LAKE MICHIGAN

STATION/POSITION TIME  TEMP    WIND        PRES    WAVE
                       AIR SEA DIR/SP/G            HT/PER
                 (UTC) (F)     (DEG/KT/KT) (MB)    (FT/S)
CHAMBERS ISLAND  0540   23     150/  1/  3 1031.5F
NORTHPORT PIER   0540   25      CALM  /  3 1032.2F
SISTER BAY       0535   24     160/  6/  8   N/A
KEWAUNEE LAKESHO 0548          18



USA.gov is the U.S. government's official web portal to all federal, state and local government web resources and services.